Montpelier, VT

12:47 PM EST on January 19, 2018 (GMT -0500)
Knapp State

Weather History for KMPV - January, 2014

Change the Weather History Date:

Wednesday, January 8, 2014

  Actual Average Record
Temperature  
Mean Temperature 9 °F 17 °F  
Max Temperature 15 °F 26 °F 60 °F (2008)
Min Temperature 3 °F 7 °F -20 °F (2015)
Degree Days  
Heating Degree Days 56 48  
Month to date heating degree days 457 382  
Since 1 July heating degree days 3715 3530  
Cooling Degree Days 0 0  
Month to date cooling degree days 0  
Year to date cooling degree days 0  
Moisture  
Dew Point -2 °F    
Average Humidity 64    
Maximum Humidity 76    
Minimum Humidity 51    
Precipitation  
Precipitation T in 0.07 in 1.65 in (1998)
Month to date precipitation 0.65 0.58  
Year to date precipitation 0.65 0.58  
Sea Level Pressure  
Sea Level Pressure 30.33 in    
Wind  
Wind Speed 5 mph (SW)    
Max Wind Speed 17 mph    
Max Gust Speed 28 mph    
Visibility 9 miles    
Events      
T = Trace of Precipitation, MM = Missing Value Source: NWS Daily Summary

Daily Weather History Graph

Daily Weather History Graph

Search for Another Location

Airport or City:

Trip Planner

Search our weather history database for the weather conditions in past years. The results will help you decide how hot, cold, wet, or windy it might be!

Date:

Astronomy

Jan. 08, 2014 Rise Set
Actual Time 7:25 AM EST 4:29 PM EST
Civil Twilight 6:52 AM EST 5:01 PM EST
Nautical Twilight 6:16 AM EST 5:38 PM EST
Astronomical Twilight 5:41 AM EST 6:13 PM EST
Moon 11:27 AM EST (1/8) 12:19 AM EST (1/8)
Length of Visible Light 10h 09m
Length of Day
9h 04m
First Quarter, 56% of the Moon is Illuminated
Jan 8
First Quarter
Jan 15
Full
Jan 24
Last Quarter
Jan 30
New
Feb 6
First Quarter

Hourly Weather History & Observations

Time (EST) Temp. Windchill Dew Point Humidity Pressure Visibility Wind Dir Wind Speed Gust Speed Precip Events Conditions
12:51 AM 3.9 °F -13.7 °F -5.1 °F 66% 30.12 in 4.0 mi WSW 13.8 mph 25.3 mph 0.00 in   Overcast
1:32 AM 3.2 °F -12.2 °F -4.0 °F 72% 30.06 in 5.0 mi WSW 10.4 mph 17.3 mph 0.00 in   Haze
1:51 AM 3.9 °F -12.2 °F -4.0 °F 70% 30.17 in 5.0 mi WSW 11.5 mph 18.4 mph 0.00 in   Haze
2:51 AM 5.0 °F -2.1 °F -4.0 °F 66% 30.20 in 6.0 mi Variable 3.5 mph - N/A   Haze
3:51 AM 5.0 °F -6.9 °F -5.1 °F 63% 30.22 in 10.0 mi WSW 6.9 mph - N/A   Partly Cloudy
4:51 AM 5.0 °F - -5.1 °F 63% 30.24 in 10.0 mi Calm Calm - N/A   Clear
5:51 AM 3.0 °F -4.4 °F -5.1 °F 69% 30.27 in 10.0 mi SE 3.5 mph - N/A   Scattered Clouds
6:51 AM 3.9 °F -5.3 °F -4.0 °F 70% 30.30 in 10.0 mi SE 4.6 mph - N/A   Overcast
7:51 AM 6.1 °F - -2.9 °F 67% 30.33 in 10.0 mi Calm Calm - N/A   Overcast
8:51 AM 7.0 °F -1.7 °F -2.0 °F 67% 30.37 in 10.0 mi South 4.6 mph - N/A   Overcast
9:51 AM 8.1 °F -2.0 °F -2.0 °F 64% 30.40 in 10.0 mi West 5.8 mph - N/A   Overcast
10:51 AM 10.0 °F 1.8 °F -0.9 °F 61% 30.39 in 10.0 mi SSW 4.6 mph - N/A   Overcast
11:51 AM 12.0 °F -0.4 °F -2.0 °F 53% 30.36 in 10.0 mi West 9.2 mph - N/A   Clear
12:51 PM 14.0 °F 0.5 °F -0.9 °F 52% 30.35 in 10.0 mi West 11.5 mph 17.3 mph N/A   Clear
1:51 PM 15.1 °F 7.7 °F -0.0 °F 51% 30.36 in 10.0 mi Variable 4.6 mph - N/A   Scattered Clouds
2:51 PM 14.0 °F 6.5 °F -0.9 °F 52% 30.37 in 10.0 mi Variable 4.6 mph - N/A   Partly Cloudy
3:51 PM 12.9 °F 5.2 °F -0.9 °F 54% 30.38 in 10.0 mi WSW 4.6 mph - N/A   Clear
4:51 PM 12.0 °F 2.7 °F -0.9 °F 56% 30.39 in 10.0 mi WSW 5.8 mph - N/A   Clear
5:51 PM 12.0 °F -0.4 °F -0.9 °F 56% 30.42 in 10.0 mi WSW 9.2 mph - N/A   Clear
6:51 PM 12.0 °F 0.5 °F -0.9 °F 56% 30.42 in 10.0 mi SW 8.1 mph - N/A   Clear
7:51 PM 9.0 °F 2.4 °F -0.0 °F 67% 30.43 in 10.0 mi WSW 3.5 mph - N/A   Clear
8:51 PM 9.0 °F - -0.0 °F 67% 30.44 in 10.0 mi Calm Calm - N/A   Mostly Cloudy
9:51 PM 9.0 °F -0.9 °F -0.0 °F 67% 30.43 in 10.0 mi SW 5.8 mph - N/A   Scattered Clouds
10:51 PM 7.0 °F - -0.0 °F 73% 30.43 in 10.0 mi Calm Calm - N/A   Overcast
11:51 PM 7.0 °F 0.1 °F 1.0 °F 77% 30.42 in 10.0 mi South 3.5 mph - N/A   Overcast